Content
SEND FEEDBACK

Daily
Averages
Monthly
Summary
United States of America

COOLIDGE, ARIZONA


Home > North America > United States > Arizona
Elevation: 483 meters     Latitude: 32 56N     Longitude: 111 25W

WEATHER
 
SELECT A DAY
Number of Records: 442,025;   Date Range: 1/1/95 - 9/13/14
 
SHARE

PRINT THIS DATA

[ ← Previous Day ]
WEATHER ALMANAC - 13 FEBRUARY, 2013
[ Next Day → ]
[ °F ]   °C
Weather ElementAverageHighLow
Temperature6.7 °C16 °C (3:55 pm)-2 °C (5:15 am)
Dewpoint-4.8 °C-2 °C (9:55 am)-8 °C (7:15 pm)
Humidity48.6 %86 % (5:15 am)22 % (5:35 pm)
Barometer1021.3 hPa1023.4 hPa (8:55 am)1019.3 hPa (5:15 pm)
Wind Speed3.1 km/h11.1 km/h (4:15 pm)
Weather ElementAverage
Visibility16.1 km
Wind DirectionESE (98 °)

Weather ElementTotal
Precipitation---
Heating Degree Days11.3 (Base 18.3)
Averaged from 71 records on 13 February, 2013
WEATHER CONDITIONS BREAKOUT
WIND DIRECTION BREAKOUT
WEATHER BY HOUR - 13 FEBRUARY, 2013
[ °F ]   °C
Local TimeTemperatureDewpointHumidityBarometerVisibilityWind DirectionWind SpeedGust SpeedPrecipitationEventsConditions
12:35 AM4 °C-4 °C56 %1022.7 hPa16.1 kmCalmClear
12:55 AM3 °C-4 °C60 %1022.7 hPa16.1 kmCalmClear
1:15 AM2 °C-4 °C65 %1022.4 hPa16.1 kmCalmClear
1:35 AM3 °C-4 °C60 %1022.4 hPa16.1 kmCalmClear
1:55 AM2 °C-4 °C65 %1022.4 hPa16.1 kmCalmClear
2:15 AM3 °C-4 °C60 %1022.4 hPa16.1 kmCalmClear
2:35 AM2 °C-4 °C65 %1022 hPa16.1 kmCalmClear
2:55 AM2 °C-4 °C65 %1022 hPa16.1 kmWNW (300°)9.3 km/hClear
3:15 AM3 °C-4 °C60 %1022 hPa16.1 kmWNW (290°)9.3 km/hClear
3:35 AM3 °C-5 °C56 %1021.7 hPa16.1 kmCalmClear
3:55 AM3 °C-4 °C60 %1021.7 hPa16.1 kmESE (110°)7.4 km/hClear
4:15 AM2 °C-4 °C65 %1021.7 hPa16.1 kmCalmClear
4:35 AM1 °C-4 °C70 %1021.7 hPa16.1 kmCalmClear
4:55 AM1 °C-4 °C70 %1021.7 hPa16.1 kmCalmClear
5:15 AM-2 °C-4 °C86 %1022 hPa16.1 kmCalmClear
5:35 AM-1 °C-5 °C75 %1022 hPa16.1 kmCalmClear
5:55 AM-1 °C-4 °C80 %1022 hPa16.1 kmNNW (340°)5.6 km/hClear
6:15 AM0 °C-4 °C75 %1022 hPa16.1 kmCalmClear
6:35 AM1 °C-4 °C70 %1022.4 hPa16.1 kmCalmClear
6:55 AM-1 °C-6 °C69 %1022.4 hPa16.1 kmCalmClear
7:15 AM-2 °C-5 °C80 %1022.4 hPa16.1 kmCalmClear
7:35 AM-1 °C-5 °C75 %1022.4 hPa16.1 kmNE (40°)5.6 km/hClear
7:55 AM0 °C-4 °C75 %1022.4 hPa16.1 kmNE (40°)5.6 km/hClear
8:15 AM2 °C-4 °C65 %1022.7 hPa16.1 kmNE (50°)5.6 km/hClear
8:35 AM2 °C-4 °C65 %1023 hPa16.1 kmEast (100°)5.6 km/hClear
8:55 AM1 °C-3 °C75 %1023.4 hPa16.1 kmCalmClear
9:15 AM2 °C-3 °C70 %1023.4 hPa16.1 kmCalmClear
9:35 AM4 °C-3 °C61 %1023.4 hPa16.1 kmCalmClear
9:55 AM2 °C-2 °C75 %1023.4 hPa16.1 kmSSE (150°)5.6 km/hClear
10:15 AM7 °C-3 °C49 %1023.4 hPa16.1 kmSE (140°)5.6 km/hClear
10:35 AM8 °C-3 °C46 %1023.4 hPa16.1 kmCalmClear
10:55 AM9 °C-3 °C43 %1023.4 hPa16.1 kmCalmClear
11:15 AM9 °C-3 °C43 %1023.4 hPa16.1 kmCalmClear
11:35 AM10 °C-3 °C40 %1023 hPa16.1 kmCalmClear
11:55 AM9 °C-4 °C40 %1022.7 hPa16.1 kmCalmClear
12:15 PM12 °C-4 °C33 %1022.4 hPa16.1 kmCalmClear
12:35 PM13 °C-4 °C31 %1022 hPa16.1 kmSSW (200°)5.6 km/hClear
12:55 PM13 °C-5 °C29 %1021.7 hPa16.1 kmCalmClear
1:15 PM13 °C-6 °C26 %1021.3 hPa16.1 kmWest (270°)9.3 km/hClear
1:35 PM13 °C-6 °C26 %1021 hPa16.1 kmCalmClear
1:55 PM14 °C-6 °C25 %1020.7 hPa16.1 kmCalmClear
2:15 PM12 °C-6 °C28 %1020.3 hPa16.1 kmCalmClear
2:35 PM12 °C-6 °C28 %1020.3 hPa16.1 kmSE (140°)5.6 km/hClear
2:55 PM14 °C-6 °C25 %1020 hPa16.1 kmWSW (250°)9.3 km/hClear
3:15 PM15 °C-6 °C23 %1020 hPa16.1 kmCalmClear
3:35 PM15 °C-5 °C25 %1020 hPa16.1 kmWest (270°)5.6 km/hClear
3:55 PM16 °C-4 °C25 %1019.6 hPa16.1 kmWNW (300°)7.4 km/hClear
4:15 PM16 °C-4 °C25 %1019.6 hPa16.1 kmWest (270°)11.1 km/hClear
4:35 PM16 °C-4 °C25 %1019.6 hPa16.1 kmWest (270°)9.3 km/hClear
4:55 PM16 °C-5 °C23 %1019.6 hPa16.1 kmWNW (300°)11.1 km/hClear
5:15 PM16 °C-5 °C23 %1019.3 hPa16.1 kmWNW (300°)7.4 km/hClear
5:35 PM16 °C-6 °C22 %1019.3 hPa16.1 kmNW (310°)9.3 km/hClear
5:55 PM14 °C-7 °C23 %1019.3 hPa16.1 kmWNW (290°)9.3 km/hClear
6:15 PM14 °C-7 °C23 %1019.3 hPa16.1 kmNW (310°)9.3 km/hClear
6:35 PM13 °C-7 °C25 %1019.6 hPa16.1 kmNW (310°)7.4 km/hClear
6:55 PM12 °C-7 °C26 %1019.6 hPa16.1 kmNW (310°)5.6 km/hClear
7:15 PM11 °C-8 °C26 %1019.6 hPa16.1 kmNW (310°)5.6 km/hClear
7:35 PM10 °C-7 °C30 %1019.6 hPa16.1 kmNW (320°)7.4 km/hClear
7:55 PM9 °C-7 °C32 %1019.6 hPa16.1 kmNW (310°)5.6 km/hClear
8:15 PM8 °C-7 °C34 %1020 hPa16.1 kmCalmClear
8:35 PM4 °C-6 °C49 %1020 hPa16.1 kmCalmClear
8:55 PM7 °C-6 °C39 %1020 hPa16.1 kmNorth (360°)5.6 km/hClear
9:15 PM7 °C-6 °C39 %1020 hPa16.1 kmCalmClear
9:35 PM7 °C-6 °C39 %1020 hPa16.1 kmCalmClear
9:55 PM7 °C-5 °C43 %1020 hPa16.1 kmCalmClear
10:15 PM1 °C-5 °C65 %1020 hPa16.1 kmCalmClear
10:35 PM2 °C-5 °C60 %1020 hPa16.1 kmCalmClear
10:55 PM3 °C-5 °C56 %1020 hPa16.1 kmCalmClear
11:15 PM4 °C-5 °C52 %1020.3 hPa16.1 kmCalmClear
11:35 PM4 °C-6 °C49 %1020 hPa16.1 kmCalmClear
11:55 PM1 °C-5 °C65 %1020 hPa16.1 kmCalmClear
Hourly data recorded from KCGZ, located 0 kilometers away from Coolidge, Arizona







STORIES FROM OUR PARTNERS